Regional Weather Roundup
Issued by NWS

Home | Current Version | Previous Version | Graphics & Text | Print | Product List | Glossary On
Versions: 1 2 3 4 5 6 7 8 9 10 11 12 13 14 15 16 17 18 19 20 21 22 23 24 25 26 27 28 29 30 31 32 33 34 35 36 37 38 39 40 41 42 43 44 45 46 47 48 49 50
000
ASUS44 KMEG 220300
RWRTN
TENNESSEE HOURLY STATE WEATHER ROUNDUP
NATIONAL WEATHER SERVICE MEMPHIS TN
1000 PM CDT THU MAY 21 2015

TNZ002-004-019-021-049-052-054-088>092-220400-
WEST TENNESSEE

CITY           SKY/WX    TMP DP  RH WIND       PRES   REMARKS
MEMPHIS INTL   CLEAR     54  45  71 NE6       30.22R
NWS MEMPHIS      N/A     48 N/A N/A MISG        N/A
JACKSON        PTCLDY    48  45  89 CALM      30.22R
DYERSBURG      CLEAR     50  36  57 N3        30.24R
PARIS          PTCLDY    48  46  93 CALM      30.22R
LEXINGTON      CLOUDY    48  46  93 CALM      30.21R
$$

TNZ008-025-027-028-033-062-065-066-220400-
NORTH MIDDLE TENNESSEE

CITY           SKY/WX    TMP DP  RH WIND       PRES   REMARKS
NASHVILLE      MOCLDY    53  45  74 N5        30.21R
CLARKSVILLE    CLEAR     49  45  86 CALM      30.22R
COOKEVILLE     MOCLDY    52  48  87 CALM      30.19R
CROSSVILLE     CLOUDY    50  45  83 NW9       30.18R
$$

TNZ061-075-076-078-094-096-097-220400-
SOUTH MIDDLE TENNESSEE

CITY           SKY/WX    TMP DP  RH WIND       PRES   REMARKS
FAYETTEVILLE   PTCLDY   N/A N/A N/A MISG      30.19R
TULLAHOMA      MOCLDY    48  46  93 CALM      30.20R
WINCHESTER     CLOUDY    52  46  82 N7        30.19R
SHELBYVILLE    MOCLDY    52  50  93 CALM      30.21R
$$

TNZ017-018-042-046-047-220400-
NORTHEAST TENNESSEE

CITY           SKY/WX    TMP DP  RH WIND       PRES   REMARKS
TRI CITIES     LGT RAIN  53  49  86 N7        30.12R
ELIZABETHTON   CLOUDY    54  46  76 NW8       30.11R
$$

TNZ012-013-036-069-073-074-220400-
CENTRAL EAST TENNESSEE

CITY           SKY/WX    TMP DP  RH WIND       PRES   REMARKS
KNOXVILLE      CLOUDY    55  47  74 N12       30.14R
OAK RIDGE      CLOUDY    56  47  71 VRB3      30.17R
GATLINBURG     CLOUDY    54  46  76 N9        30.14R
$$

TNZ083-085-099-220400-
SOUTHEAST TENNESSEE

CITY           SKY/WX    TMP DP  RH WIND       PRES   REMARKS
CHATTANOOGA    CLOUDY    56  46  69 N14       30.16R
$$

SKY/WX REPORTED AS FAIR MEANS FEW OR NO CLOUDS BELOW
12 THOUSAND FEET.



USA.gov is the U.S. government's official web portal to all federal, state and local government web resources and services.